Time,TemperatureF,DewpointF,PressureIn,WindDirection,WindDirectionDegrees,WindSpeedMPH,WindSpeedGustMPH,Humidity,HourlyPrecipIn,Conditions,Clouds,dailyrainin,SoftwareType,DateUTC
2013-01-09 00:03:00,29.0,17.0,-100.00,NNE,20,3.0,6.0,59,0.00,,,-99.99,,2013-01-09 05:03:00,
2013-01-09 00:12:00,29.0,17.0,-100.00,ENE,75,2.0,6.0,59,0.00,,,-99.99,,2013-01-09 05:12:00,
2013-01-09 00:22:00,29.0,17.0,-100.00,WNW,290,0.0,3.0,61,0.00,,,-99.99,,2013-01-09 05:22:00,
2013-01-09 00:33:00,29.0,18.0,-100.00,South,175,1.0,2.0,62,0.00,,,-99.99,,2013-01-09 05:33:00,
2013-01-09 00:42:00,29.0,18.0,-100.00,ENE,70,1.0,4.0,63,0.00,,,-99.99,,2013-01-09 05:42:00,
2013-01-09 00:52:00,28.0,18.0,-100.00,SSE,165,1.0,3.0,63,0.00,,,-99.99,,2013-01-09 05:52:00,
2013-01-09 01:02:00,28.0,18.0,-100.00,SSE,150,1.0,3.0,63,0.00,,,-99.99,,2013-01-09 06:02:00,
2013-01-09 01:12:00,28.0,18.0,-100.00,SSE,165,2.0,4.0,65,0.00,,,-99.99,,2013-01-09 06:12:00,
2013-01-09 01:22:00,28.0,18.0,-100.00,SSE,165,3.0,4.0,65,0.00,,,-99.99,,2013-01-09 06:22:00,
2013-01-09 01:32:00,28.0,18.0,-100.00,SSE,150,1.0,3.0,65,0.00,,,-99.99,,2013-01-09 06:32:00,
2013-01-09 01:42:00,28.0,18.0,-100.00,SE,135,1.0,2.0,65,0.00,,,-99.99,,2013-01-09 06:42:00,
2013-01-09 01:52:00,27.0,18.0,-100.00,NW,315,1.0,2.0,67,0.00,,,-99.99,,2013-01-09 06:52:00,
2013-01-09 02:12:00,27.0,18.0,-100.00,North,10,0.0,1.0,69,0.00,,,-99.99,,2013-01-09 07:12:00,
2013-01-09 02:22:00,27.0,18.0,-100.00,South,170,0.0,1.0,70,0.00,,,-99.99,,2013-01-09 07:22:00,
2013-01-09 02:32:00,26.0,18.0,-100.00,West,260,0.0,1.0,70,0.00,,,-99.99,,2013-01-09 07:32:00,
2013-01-09 02:42:00,26.0,18.0,-100.00,SSE,150,0.0,1.0,71,0.00,,,-99.99,,2013-01-09 07:42:00,
2013-01-09 02:52:00,26.0,18.0,-100.00,South,170,1.0,2.0,72,0.00,,,-99.99,,2013-01-09 07:52:00,
2013-01-09 03:02:00,26.0,18.0,-100.00,SE,135,1.0,2.0,71,0.00,,,-99.99,,2013-01-09 08:02:00,
2013-01-09 03:12:00,25.0,18.0,-100.00,West,280,0.0,2.0,72,0.00,,,-99.99,,2013-01-09 08:12:00,
2013-01-09 03:22:00,25.0,18.0,-100.00,South,170,0.0,2.0,73,0.00,,,-99.99,,2013-01-09 08:22:00,
2013-01-09 03:32:00,25.0,17.0,-100.00,WSW,250,0.0,2.0,73,0.00,,,-99.99,,2013-01-09 08:32:00,
2013-01-09 03:42:00,25.0,18.0,-100.00,NNE,20,0.0,3.0,73,0.00,,,-99.99,,2013-01-09 08:42:00,
2013-01-09 03:52:00,25.0,18.0,-100.00,North,-999,-999.0,-999.0,74,0.00,,,-99.99,,2013-01-09 08:52:00,
2013-01-09 04:02:00,25.0,18.0,-100.00,SSE,155,1.0,2.0,74,0.00,,,-99.99,,2013-01-09 09:02:00,
2013-01-09 04:12:00,25.0,18.0,-100.00,East,100,0.0,2.0,74,0.00,,,-99.99,,2013-01-09 09:12:00,
2013-01-09 04:22:00,25.0,18.0,-100.00,SSE,160,1.0,1.0,73,0.00,,,-99.99,,2013-01-09 09:22:00,
2013-01-09 04:32:00,25.0,18.0,-100.00,SSE,160,1.0,2.0,72,0.00,,,-99.99,,2013-01-09 09:32:00,
2013-01-09 04:42:00,26.0,18.0,-100.00,SSE,165,2.0,2.0,72,0.00,,,-99.99,,2013-01-09 09:42:00,
2013-01-09 04:53:00,25.0,18.0,-100.00,SE,135,1.0,2.0,73,0.00,,,-99.99,,2013-01-09 09:53:00,
2013-01-09 05:02:00,24.0,17.0,-100.00,South,180,1.0,2.0,75,0.00,,,-99.99,,2013-01-09 10:02:00,
2013-01-09 05:12:00,24.0,17.0,-100.00,NNW,330,0.0,1.0,75,0.00,,,-99.99,,2013-01-09 10:12:00,
2013-01-09 05:22:00,24.0,17.0,-100.00,West,280,0.0,1.0,75,0.00,,,-99.99,,2013-01-09 10:22:00,
2013-01-09 05:32:00,22.0,17.0,-100.00,South,175,2.0,3.0,78,0.00,,,-99.99,,2013-01-09 10:32:00,
2013-01-09 05:42:00,23.0,18.0,-100.00,SSE,155,2.0,4.0,78,0.00,,,-99.99,,2013-01-09 10:42:00,
2013-01-09 05:52:00,23.0,17.0,-100.00,SE,125,1.0,2.0,79,0.00,,,-99.99,,2013-01-09 10:52:00,
2013-01-09 06:02:00,23.0,18.0,-100.00,North,0,0.0,2.0,80,0.00,,,-99.99,,2013-01-09 11:02:00,
2013-01-09 06:12:00,23.0,18.0,-100.00,SSE,165,3.0,4.0,82,0.00,,,-99.99,,2013-01-09 11:12:00,
2013-01-09 06:22:00,24.0,19.0,-100.00,SSE,165,1.0,4.0,81,0.00,,,-99.99,,2013-01-09 11:22:00,
2013-01-09 06:32:00,24.0,19.0,-100.00,South,170,2.0,3.0,79,0.00,,,-99.99,,2013-01-09 11:32:00,
2013-01-09 06:42:00,23.0,18.0,-100.00,South,190,1.0,1.0,79,0.00,,,-99.99,,2013-01-09 11:42:00,
2013-01-09 06:52:00,23.0,18.0,-100.00,South,170,1.0,1.0,79,0.00,,,-99.99,,2013-01-09 11:52:00,
2013-01-09 07:03:00,23.0,18.0,-100.00,South,170,0.0,1.0,81,0.00,,,-99.99,,2013-01-09 12:03:00,
2013-01-09 07:12:00,23.0,18.0,-100.00,SE,135,0.0,1.0,80,0.00,,,-99.99,,2013-01-09 12:12:00,
2013-01-09 07:23:00,23.0,18.0,-100.00,East,100,0.0,1.0,81,0.00,,,-99.99,,2013-01-09 12:23:00,
2013-01-09 07:33:00,23.0,18.0,-100.00,South,175,2.0,3.0,80,0.00,,,-99.99,,2013-01-09 12:33:00,
2013-01-09 07:43:00,22.0,18.0,-100.00,South,170,2.0,3.0,82,0.00,,,-99.99,,2013-01-09 12:43:00,
2013-01-09 07:52:00,23.0,18.0,-100.00,SSE,165,4.0,6.0,81,0.00,,,-99.99,,2013-01-09 12:52:00,
2013-01-09 08:03:00,23.0,18.0,-100.00,SSE,165,4.0,6.0,80,0.00,,,-99.99,,2013-01-09 13:03:00,
2013-01-09 08:12:00,23.0,19.0,-100.00,South,170,5.0,9.0,82,0.00,,,-99.99,,2013-01-09 13:12:00,
2013-01-09 08:23:00,23.0,19.0,-100.00,South,175,6.0,9.0,82,0.00,,,-99.99,,2013-01-09 13:23:00,
2013-01-09 08:33:00,24.0,19.0,-100.00,South,175,7.0,9.0,81,0.00,,,-99.99,,2013-01-09 13:33:00,
2013-01-09 08:43:00,23.0,18.0,-100.00,South,180,6.0,7.0,80,0.00,,,-99.99,,2013-01-09 13:43:00,
2013-01-09 08:52:00,25.0,19.0,-100.00,South,175,6.0,8.0,78,0.00,,,-99.99,,2013-01-09 13:52:00,
2013-01-09 09:03:00,25.0,19.0,-100.00,South,175,6.0,7.0,75,0.00,,,-99.99,,2013-01-09 14:03:00,
2013-01-09 09:12:00,25.0,18.0,-100.00,South,175,7.0,10.0,74,0.00,,,-99.99,,2013-01-09 14:12:00,
2013-01-09 09:23:00,26.0,18.0,-100.00,SSE,165,7.0,9.0,73,0.00,,,-99.99,,2013-01-09 14:23:00,
2013-01-09 09:33:00,26.0,19.0,-100.00,SSE,160,6.0,9.0,72,0.00,,,-99.99,,2013-01-09 14:33:00,
2013-01-09 09:43:00,27.0,19.0,-100.00,South,170,7.0,9.0,70,0.00,,,-99.99,,2013-01-09 14:43:00,
2013-01-09 09:53:00,27.0,18.0,-100.00,North,-999,-999.0,-999.0,70,-99.99,,,-99.99,,2013-01-09 14:53:00,
2013-01-09 10:03:00,27.0,19.0,-100.00,South,170,7.0,10.0,69,0.00,,,-99.99,,2013-01-09 15:03:00,
2013-01-09 10:12:00,28.0,19.0,-100.00,SSE,165,9.0,11.0,67,0.00,,,-99.99,,2013-01-09 15:12:00,
2013-01-09 10:23:00,29.0,19.0,-100.00,South,170,8.0,11.0,66,0.00,,,-99.99,,2013-01-09 15:23:00,
2013-01-09 10:33:00,29.0,19.0,-100.00,South,175,9.0,11.0,66,0.00,,,-99.99,,2013-01-09 15:33:00,
2013-01-09 10:42:00,29.0,19.0,-100.00,South,175,8.0,12.0,66,0.00,,,-99.99,,2013-01-09 15:42:00,
2013-01-09 10:53:00,29.0,19.0,-100.00,South,175,7.0,12.0,65,0.00,,,-99.99,,2013-01-09 15:53:00,
2013-01-09 11:03:00,29.0,19.0,-100.00,South,175,11.0,12.0,65,0.00,,,-99.99,,2013-01-09 16:03:00,
2013-01-09 11:12:00,29.0,19.0,-100.00,South,170,9.0,12.0,64,0.00,,,-99.99,,2013-01-09 16:12:00,
2013-01-09 11:23:00,29.0,19.0,-100.00,SSE,165,9.0,11.0,64,0.00,,,-99.99,,2013-01-09 16:23:00,
2013-01-09 11:33:00,29.0,19.0,-100.00,South,170,12.0,15.0,63,0.00,,,-99.99,,2013-01-09 16:33:00,
2013-01-09 11:43:00,30.0,19.0,-100.00,South,170,11.0,14.0,62,0.00,,,-99.99,,2013-01-09 16:43:00,
2013-01-09 11:52:00,30.0,19.0,-100.00,South,170,11.0,14.0,63,0.00,,,-99.99,,2013-01-09 16:52:00,
2013-01-09 12:03:00,30.0,19.0,-100.00,South,170,11.0,14.0,63,0.00,,,-99.99,,2013-01-09 17:03:00,
2013-01-09 12:12:00,31.0,19.0,-100.00,South,170,9.0,11.0,60,0.00,,,-99.99,,2013-01-09 17:12:00,
2013-01-09 12:23:00,31.0,19.0,-100.00,South,170,8.0,11.0,60,0.00,,,-99.99,,2013-01-09 17:23:00,
2013-01-09 12:33:00,31.0,19.0,-100.00,SSE,165,7.0,10.0,60,0.00,,,-99.99,,2013-01-09 17:33:00,
2013-01-09 12:43:00,31.0,19.0,-100.00,SSE,165,7.0,11.0,60,0.00,,,-99.99,,2013-01-09 17:43:00,
2013-01-09 12:53:00,31.0,19.0,-100.00,SSE,165,7.0,11.0,60,0.00,,,-99.99,,2013-01-09 17:53:00,
2013-01-09 13:03:00,31.0,19.0,-100.00,SSE,165,7.0,11.0,60,0.00,,,-99.99,,2013-01-09 18:03:00,
2013-01-09 13:12:00,31.0,19.0,-100.00,SSE,165,7.0,11.0,60,0.00,,,-99.99,,2013-01-09 18:12:00,
2013-01-09 13:24:00,31.0,19.0,-100.00,South,170,4.0,6.0,59,0.00,,,-99.99,,2013-01-09 18:24:00,
2013-01-09 13:33:00,31.0,19.0,-100.00,South,170,5.0,7.0,60,0.00,,,-99.99,,2013-01-09 18:33:00,
2013-01-09 13:43:00,31.0,19.0,-100.00,South,170,6.0,8.0,59,0.00,,,-99.99,,2013-01-09 18:43:00,
2013-01-09 13:53:00,31.0,19.0,-100.00,SSE,160,5.0,7.0,60,0.00,,,-99.99,,2013-01-09 18:53:00,
2013-01-09 14:03:00,32.0,20.0,-100.00,SSE,165,4.0,6.0,60,0.00,,,-99.99,,2013-01-09 19:03:00,
2013-01-09 14:13:00,32.0,19.0,-100.00,SSE,160,4.0,6.0,57,0.00,,,-99.99,,2013-01-09 19:13:00,
2013-01-09 14:23:00,33.0,19.0,-100.00,SSE,160,7.0,9.0,54,0.00,,,-99.99,,2013-01-09 19:23:00,
2013-01-09 14:33:00,33.0,19.0,-100.00,SSE,160,7.0,9.0,54,0.00,,,-99.99,,2013-01-09 19:33:00,
2013-01-09 14:43:00,33.0,20.0,-100.00,South,170,7.0,10.0,58,0.00,,,-99.99,,2013-01-09 19:43:00,
2013-01-09 14:52:00,33.0,19.0,-100.00,SSE,160,6.0,10.0,56,0.00,,,-99.99,,2013-01-09 19:52:00,
2013-01-09 15:03:00,33.0,19.0,-100.00,SSE,160,6.0,10.0,56,0.00,,,-99.99,,2013-01-09 20:03:00,
2013-01-09 15:12:00,33.0,20.0,-100.00,SSE,165,9.0,11.0,57,0.00,,,-99.99,,2013-01-09 20:12:00,
2013-01-09 15:23:00,34.0,20.0,-100.00,SSE,165,9.0,12.0,55,0.00,,,-99.99,,2013-01-09 20:23:00,
2013-01-09 15:33:00,34.0,20.0,-100.00,SSE,165,9.0,12.0,55,0.00,,,-99.99,,2013-01-09 20:33:00,
2013-01-09 15:43:00,35.0,20.0,-100.00,South,170,10.0,12.0,55,0.00,,,-99.99,,2013-01-09 20:43:00,
2013-01-09 15:53:00,35.0,21.0,-100.00,South,175,9.0,13.0,55,0.00,,,-99.99,,2013-01-09 20:53:00,
2013-01-09 16:03:00,35.0,21.0,-100.00,South,175,9.0,13.0,55,0.00,,,-99.99,,2013-01-09 21:03:00,
2013-01-09 16:13:00,35.0,22.0,-100.00,SSE,160,4.0,6.0,57,0.00,,,-99.99,,2013-01-09 21:13:00,
2013-01-09 16:23:00,36.0,22.0,-100.00,SSE,165,7.0,12.0,56,0.00,,,-99.99,,2013-01-09 21:23:00,
2013-01-09 16:33:00,36.0,22.0,-100.00,SSE,165,7.0,12.0,56,0.00,,,-99.99,,2013-01-09 21:33:00,
2013-01-09 16:43:00,36.0,23.0,-100.00,South,180,11.0,16.0,58,0.00,,,-99.99,,2013-01-09 21:43:00,
2013-01-09 16:52:00,36.0,23.0,-100.00,SSW,195,9.0,18.0,58,0.00,,,-99.99,,2013-01-09 21:52:00,
2013-01-09 17:03:00,36.0,23.0,-100.00,SSW,200,7.0,12.0,59,0.00,,,-99.99,,2013-01-09 22:03:00,
2013-01-09 17:12:00,36.0,24.0,-100.00,South,170,8.0,16.0,60,0.00,,,-99.99,,2013-01-09 22:12:00,
2013-01-09 17:23:00,36.0,24.0,-100.00,South,180,8.0,13.0,61,0.00,,,-99.99,,2013-01-09 22:23:00,
2013-01-09 17:33:00,36.0,24.0,-100.00,South,180,8.0,13.0,61,0.00,,,-99.99,,2013-01-09 22:33:00,
2013-01-09 17:43:00,36.0,25.0,-100.00,SSW,195,7.0,18.0,63,0.00,,,-99.99,,2013-01-09 22:43:00,
2013-01-09 17:52:00,36.0,25.0,-100.00,South,190,7.0,13.0,65,0.00,,,-99.99,,2013-01-09 22:52:00,
2013-01-09 18:03:00,36.0,25.0,-100.00,South,190,7.0,13.0,65,0.00,,,-99.99,,2013-01-09 23:03:00,
2013-01-09 18:13:00,36.0,25.0,-100.00,South,190,7.0,13.0,65,0.00,,,-99.99,,2013-01-09 23:13:00,
2013-01-09 18:22:00,36.0,25.0,-100.00,South,190,7.0,13.0,65,0.00,,,-99.99,,2013-01-09 23:22:00,
2013-01-09 18:33:00,36.0,25.0,-100.00,South,190,7.0,13.0,65,0.00,,,-99.99,,2013-01-09 23:33:00,
2013-01-09 22:03:00,40.0,25.0,-100.00,NNW,335,7.0,17.0,54,0.00,,,-99.99,,2013-01-10 03:03:00,
2013-01-09 22:12:00,40.0,24.0,-100.00,WNW,290,10.0,22.0,51,0.00,,,-99.99,,2013-01-10 03:12:00,
2013-01-09 22:22:00,39.0,23.0,-100.00,WNW,290,13.0,37.0,50,0.00,,,-99.99,,2013-01-10 03:22:00,
2013-01-09 22:33:00,39.0,23.0,-100.00,WNW,290,13.0,37.0,50,0.00,,,-99.99,,2013-01-10 03:33:00,
2013-01-09 22:43:00,39.0,23.0,-100.00,NNW,345,14.0,28.0,51,0.00,,,-99.99,,2013-01-10 03:43:00,
2013-01-09 22:52:00,38.0,22.0,-100.00,West,265,9.0,26.0,51,0.00,,,-99.99,,2013-01-10 03:52:00,
2013-01-09 23:02:00,38.0,22.0,-100.00,West,265,9.0,26.0,51,0.00,,,-99.99,,2013-01-10 04:02:00,
2013-01-09 23:12:00,38.0,21.0,-100.00,NW,320,12.0,28.0,49,0.00,,,-99.99,,2013-01-10 04:12:00,
2013-01-09 23:22:00,38.0,21.0,-100.00,WNW,295,11.0,20.0,50,0.00,,,-99.99,,2013-01-10 04:22:00,
2013-01-09 23:32:00,38.0,21.0,-100.00,WNW,295,11.0,20.0,50,0.00,,,-99.99,,2013-01-10 04:32:00,
2013-01-09 23:43:00,38.0,22.0,-100.00,WNW,285,9.0,21.0,50,0.00,,,-99.99,,2013-01-10 04:43:00,
2013-01-09 23:52:00,38.0,22.0,-100.00,West,270,7.0,21.0,52,0.00,,,-99.99,,2013-01-10 04:52:00,